Time,TemperatureF,DewpointF,PressureIn,WindDirection,WindDirectionDegrees,WindSpeedMPH,WindSpeedGustMPH,Humidity,HourlyPrecipIn,Conditions,Clouds,dailyrainin,SoftwareType,DateUTC
2013-04-28 00:03:00,67.1,20.9,25.79,North,0,0.0,0.0,17,0.00,,---,0.00,VWS V13.01,2013-04-28 06:03:00,
2013-04-28 00:08:00,67.5,21.2,25.79,North,0,0.0,0.0,17,0.00,,---,0.00,VWS V13.01,2013-04-28 06:08:00,
2013-04-28 00:13:00,67.5,21.2,25.79,North,0,0.0,0.0,17,0.00,,---,0.00,VWS V13.01,2013-04-28 06:13:00,
2013-04-28 00:18:00,67.1,20.9,25.79,North,0,0.0,0.0,17,0.00,,---,0.00,VWS V13.01,2013-04-28 06:18:00,
2013-04-28 00:23:00,66.9,20.7,25.79,North,0,0.0,0.0,17,0.00,,---,0.00,VWS V13.01,2013-04-28 06:23:00,
2013-04-28 00:28:00,66.7,20.6,25.79,North,0,0.0,0.0,17,0.00,,---,0.00,VWS V13.01,2013-04-28 06:28:00,
2013-04-28 00:33:00,66.6,20.4,25.79,North,0,0.0,0.0,17,0.00,,---,0.00,VWS V13.01,2013-04-28 06:33:00,
2013-04-28 00:38:00,66.4,20.3,25.79,North,0,0.0,0.0,17,0.00,,---,0.00,VWS V13.01,2013-04-28 06:38:00,
2013-04-28 00:43:00,66.0,21.3,25.79,North,0,0.0,0.0,18,0.00,,---,0.00,VWS V13.01,2013-04-28 06:43:00,
2013-04-28 00:48:00,65.8,21.2,25.79,North,0,0.0,0.0,18,0.00,,---,0.00,VWS V13.01,2013-04-28 06:48:00,
2013-04-28 00:53:00,65.7,21.0,25.76,North,0,0.0,0.0,18,0.00,,---,0.00,VWS V13.01,2013-04-28 06:53:00,
2013-04-28 00:58:00,65.5,20.9,25.76,North,0,0.0,0.0,18,0.00,,---,0.00,VWS V13.01,2013-04-28 06:58:00,
2013-04-28 01:03:00,65.1,20.6,25.76,North,0,0.0,0.0,18,0.00,,---,0.00,VWS V13.01,2013-04-28 07:03:00,
2013-04-28 01:08:00,64.8,20.3,25.76,North,0,0.0,0.0,18,0.00,,---,0.00,VWS V13.01,2013-04-28 07:08:00,
2013-04-28 01:13:00,64.6,20.1,25.76,North,0,0.0,0.0,18,0.00,,---,0.00,VWS V13.01,2013-04-28 07:13:00,
2013-04-28 01:18:00,64.2,19.9,25.76,North,0,0.0,0.0,18,0.00,,---,0.00,VWS V13.01,2013-04-28 07:18:00,
2013-04-28 01:23:00,63.9,19.6,25.76,North,0,0.0,0.0,18,0.00,,---,0.00,VWS V13.01,2013-04-28 07:23:00,
2013-04-28 01:28:00,63.5,22.9,25.76,North,0,0.0,0.0,21,0.00,,---,0.00,VWS V13.01,2013-04-28 07:28:00,
2013-04-28 01:33:00,63.3,22.8,25.76,North,0,0.0,0.0,21,0.00,,---,0.00,VWS V13.01,2013-04-28 07:33:00,
2013-04-28 01:38:00,63.3,22.8,25.76,North,0,0.0,0.0,21,0.00,,---,0.00,VWS V13.01,2013-04-28 07:38:00,
2013-04-28 01:43:00,63.9,23.2,25.76,North,0,0.0,0.0,21,0.00,,---,0.00,VWS V13.01,2013-04-28 07:43:00,
2013-04-28 01:48:00,64.6,20.1,25.76,North,0,0.0,0.0,18,0.00,,---,0.00,VWS V13.01,2013-04-28 07:48:00,
2013-04-28 01:53:00,65.3,20.7,25.76,North,0,0.0,0.0,18,0.00,,---,0.00,VWS V13.01,2013-04-28 07:53:00,
2013-04-28 01:59:00,65.7,21.0,25.76,North,0,0.0,0.0,18,0.00,,---,0.00,VWS V13.01,2013-04-28 07:59:00,
2013-04-28 02:04:00,65.7,21.0,25.76,North,0,0.0,0.0,18,0.00,,---,0.00,VWS V13.01,2013-04-28 08:04:00,
2013-04-28 02:09:00,65.3,20.7,25.76,North,0,0.0,0.0,18,0.00,,---,0.00,VWS V13.01,2013-04-28 08:09:00,
2013-04-28 02:14:00,64.6,20.1,25.76,North,0,0.0,0.0,18,0.00,,---,0.00,VWS V13.01,2013-04-28 08:14:00,
2013-04-28 02:19:00,64.2,19.9,25.76,North,0,0.0,0.0,18,0.00,,---,0.00,VWS V13.01,2013-04-28 08:19:00,
2013-04-28 02:24:00,63.7,19.4,25.76,North,0,0.0,0.0,18,0.00,,---,0.00,VWS V13.01,2013-04-28 08:24:00,
2013-04-28 02:29:00,63.1,22.6,25.76,North,0,0.0,0.0,21,0.00,,---,0.00,VWS V13.01,2013-04-28 08:29:00,
2013-04-28 02:34:00,63.0,22.5,25.76,North,0,0.0,0.0,21,0.00,,---,0.00,VWS V13.01,2013-04-28 08:34:00,
2013-04-28 02:39:00,62.6,22.1,25.76,North,0,0.0,0.0,21,0.00,,---,0.00,VWS V13.01,2013-04-28 08:39:00,
2013-04-28 02:44:00,62.2,21.9,25.76,North,0,0.0,0.0,21,0.00,,---,0.00,VWS V13.01,2013-04-28 08:44:00,
2013-04-28 02:49:00,61.7,21.4,25.76,North,0,0.0,0.0,21,0.00,,---,0.00,VWS V13.01,2013-04-28 08:49:00,
2013-04-28 02:54:00,61.5,21.2,25.76,North,0,0.0,0.0,21,0.00,,---,0.00,VWS V13.01,2013-04-28 08:54:00,
2013-04-28 02:59:00,61.3,21.1,25.76,North,0,0.0,0.0,21,0.00,,---,0.00,VWS V13.01,2013-04-28 08:59:00,
2013-04-28 03:04:00,61.2,20.9,25.76,North,0,0.0,0.0,21,0.00,,---,0.00,VWS V13.01,2013-04-28 09:04:00,
2013-04-28 03:09:00,61.2,20.9,25.73,North,0,0.0,0.0,21,0.00,,---,0.00,VWS V13.01,2013-04-28 09:09:00,
2013-04-28 03:14:00,61.2,20.9,25.73,North,0,0.0,0.0,21,0.00,,---,0.00,VWS V13.01,2013-04-28 09:14:00,
2013-04-28 03:19:00,61.0,20.8,25.73,North,0,0.0,0.0,21,0.00,,---,0.00,VWS V13.01,2013-04-28 09:19:00,
2013-04-28 03:24:00,61.3,21.1,25.73,North,0,0.0,0.0,21,0.00,,---,0.00,VWS V13.01,2013-04-28 09:24:00,
2013-04-28 03:29:00,61.3,21.1,25.73,North,0,0.0,0.0,21,0.00,,---,0.00,VWS V13.01,2013-04-28 09:29:00,
2013-04-28 03:34:00,61.9,21.5,25.73,North,0,0.0,0.0,21,0.00,,---,0.00,VWS V13.01,2013-04-28 09:34:00,
2013-04-28 03:39:00,62.2,21.9,25.73,North,0,0.0,0.0,21,0.00,,---,0.00,VWS V13.01,2013-04-28 09:39:00,
2013-04-28 03:44:00,62.6,22.1,25.73,North,0,0.0,0.0,21,0.00,,---,0.00,VWS V13.01,2013-04-28 09:44:00,
2013-04-28 03:49:00,63.1,22.6,25.73,North,0,0.0,0.0,21,0.00,,---,0.00,VWS V13.01,2013-04-28 09:49:00,
2013-04-28 03:54:00,63.9,23.2,25.73,North,0,0.0,0.0,21,0.00,,---,0.00,VWS V13.01,2013-04-28 09:54:00,
2013-04-28 03:59:00,64.8,22.8,25.73,North,0,0.0,0.0,20,0.00,,---,0.00,VWS V13.01,2013-04-28 09:59:00,
2013-04-28 04:04:00,65.3,20.7,25.73,North,0,0.0,0.0,18,0.00,,---,0.00,VWS V13.01,2013-04-28 10:04:00,
2013-04-28 04:09:00,65.7,21.0,25.73,North,0,0.0,0.0,18,0.00,,---,0.00,VWS V13.01,2013-04-28 10:09:00,
2013-04-28 04:14:00,66.0,21.3,25.73,North,0,0.0,0.0,18,0.00,,---,0.00,VWS V13.01,2013-04-28 10:14:00,
2013-04-28 04:19:00,66.4,20.3,25.73,North,0,0.0,0.0,17,0.00,,---,0.00,VWS V13.01,2013-04-28 10:19:00,
2013-04-28 04:24:00,66.4,20.3,25.73,North,0,0.0,0.0,17,0.00,,---,0.00,VWS V13.01,2013-04-28 10:24:00,
2013-04-28 04:29:00,66.4,20.3,25.73,North,0,0.0,0.0,17,0.00,,---,0.00,VWS V13.01,2013-04-28 10:29:00,
2013-04-28 04:34:00,66.4,20.3,25.73,North,0,0.0,0.0,17,0.00,,---,0.00,VWS V13.01,2013-04-28 10:34:00,
2013-04-28 04:39:00,66.6,20.4,25.73,North,0,0.0,0.0,17,0.00,,---,0.00,VWS V13.01,2013-04-28 10:39:00,
2013-04-28 04:44:00,66.7,20.6,25.73,North,0,0.0,0.0,17,0.00,,---,0.00,VWS V13.01,2013-04-28 10:44:00,
2013-04-28 04:49:00,66.9,20.7,25.73,North,0,0.0,0.0,17,0.00,,---,0.00,VWS V13.01,2013-04-28 10:49:00,
2013-04-28 04:54:00,67.1,20.9,25.73,North,0,0.0,0.0,17,0.00,,---,0.00,VWS V13.01,2013-04-28 10:54:00,
2013-04-28 04:59:00,67.3,21.0,25.73,North,0,0.0,0.0,17,0.00,,---,0.00,VWS V13.01,2013-04-28 10:59:00,
2013-04-28 05:04:00,67.3,21.0,25.73,North,0,0.0,0.0,17,0.00,,---,0.00,VWS V13.01,2013-04-28 11:04:00,
2013-04-28 05:09:00,67.3,21.0,25.73,North,0,0.0,0.0,17,0.00,,---,0.00,VWS V13.01,2013-04-28 11:09:00,
2013-04-28 05:14:00,67.5,21.2,25.73,North,0,0.0,0.0,17,0.00,,---,0.00,VWS V13.01,2013-04-28 11:14:00,
2013-04-28 05:19:00,67.5,21.2,25.73,North,0,0.0,0.0,17,0.00,,---,0.00,VWS V13.01,2013-04-28 11:19:00,
2013-04-28 05:24:00,67.5,21.2,25.73,North,0,0.0,0.0,17,0.00,,---,0.00,VWS V13.01,2013-04-28 11:24:00,
2013-04-28 05:29:00,67.5,21.2,25.73,North,0,0.0,0.0,17,0.00,,---,0.00,VWS V13.01,2013-04-28 11:29:00,
2013-04-28 05:34:00,67.5,21.2,25.73,North,0,0.0,0.0,17,0.00,,---,0.00,VWS V13.01,2013-04-28 11:34:00,
2013-04-28 05:39:00,67.6,21.3,25.73,North,0,0.0,0.0,17,0.00,,---,0.00,VWS V13.01,2013-04-28 11:39:00,
2013-04-28 05:44:00,67.6,21.3,25.73,North,0,0.0,0.0,17,0.00,,---,0.00,VWS V13.01,2013-04-28 11:44:00,
2013-04-28 05:49:00,67.8,21.5,25.73,North,0,0.0,0.0,17,0.00,,---,0.00,VWS V13.01,2013-04-28 11:49:00,
2013-04-28 05:54:00,68.0,21.6,25.76,North,0,0.0,0.0,17,0.00,,---,0.00,VWS V13.01,2013-04-28 11:54:00,
2013-04-28 05:59:00,68.2,21.7,25.76,North,0,0.0,0.0,17,0.00,,---,0.00,VWS V13.01,2013-04-28 11:59:00,
2013-04-28 06:04:00,68.4,21.9,25.76,North,0,0.0,0.0,17,0.00,,---,0.00,VWS V13.01,2013-04-28 12:04:00,
2013-04-28 06:09:00,68.5,22.0,25.76,North,0,0.0,0.0,17,0.00,,---,0.00,VWS V13.01,2013-04-28 12:09:00,
2013-04-28 06:14:00,68.5,22.0,25.76,North,0,0.0,0.0,17,0.00,,---,0.00,VWS V13.01,2013-04-28 12:14:00,
2013-04-28 06:19:00,68.5,22.0,25.76,North,0,0.0,0.0,17,0.00,,---,0.00,VWS V13.01,2013-04-28 12:19:00,
2013-04-28 06:24:00,68.5,22.0,25.76,North,0,0.0,0.0,17,0.00,,---,0.00,VWS V13.01,2013-04-28 12:24:00,
2013-04-28 06:29:00,68.7,22.2,25.76,North,0,0.0,0.0,17,0.00,,---,0.00,VWS V13.01,2013-04-28 12:29:00,
2013-04-28 06:34:00,68.9,22.3,25.76,North,0,0.0,0.0,17,0.00,,---,0.00,VWS V13.01,2013-04-28 12:34:00,
2013-04-28 06:39:00,69.1,22.5,25.76,North,0,0.0,0.0,17,0.00,,---,0.00,VWS V13.01,2013-04-28 12:39:00,
2013-04-28 06:44:00,69.3,22.6,25.76,North,0,0.0,0.0,17,0.00,,---,0.00,VWS V13.01,2013-04-28 12:44:00,
2013-04-28 06:49:00,69.6,22.9,25.76,North,0,0.0,0.0,17,0.00,,---,0.00,VWS V13.01,2013-04-28 12:49:00,
2013-04-28 06:54:00,70.2,23.4,25.79,North,0,0.0,0.0,17,0.00,,---,0.00,VWS V13.01,2013-04-28 12:54:00,
2013-04-28 06:59:00,70.7,23.8,25.79,North,0,0.0,0.0,17,0.00,,---,0.00,VWS V13.01,2013-04-28 12:59:00,
2013-04-28 07:04:00,71.2,24.2,25.79,North,0,0.0,0.0,17,0.00,,---,0.00,VWS V13.01,2013-04-28 13:04:00,
2013-04-28 07:09:00,71.4,24.4,25.79,North,0,0.0,0.0,17,0.00,,---,0.00,VWS V13.01,2013-04-28 13:09:00,
2013-04-28 07:14:00,71.4,24.4,25.79,North,0,0.0,0.0,17,0.00,,---,0.00,VWS V13.01,2013-04-28 13:14:00,
2013-04-28 07:19:00,71.4,24.4,25.79,North,0,0.0,0.0,17,0.00,,---,0.00,VWS V13.01,2013-04-28 13:19:00,
2013-04-28 07:24:00,71.1,24.1,25.82,North,0,0.0,0.0,17,0.00,,---,0.00,VWS V13.01,2013-04-28 13:24:00,
2013-04-28 07:29:00,70.7,23.8,25.82,North,0,0.0,0.0,17,0.00,,---,0.00,VWS V13.01,2013-04-28 13:29:00,
2013-04-28 07:34:00,70.5,23.6,25.82,North,0,0.0,0.0,17,0.00,,---,0.00,VWS V13.01,2013-04-28 13:34:00,
2013-04-28 07:39:00,70.3,23.5,25.82,North,0,0.0,0.0,17,0.00,,---,0.00,VWS V13.01,2013-04-28 13:39:00,
2013-04-28 07:44:00,70.5,23.6,25.82,North,0,0.0,0.0,17,0.00,,---,0.00,VWS V13.01,2013-04-28 13:44:00,
2013-04-28 07:49:00,70.7,23.8,25.82,North,0,0.0,0.0,17,0.00,,---,0.00,VWS V13.01,2013-04-28 13:49:00,
2013-04-28 07:54:00,70.9,23.9,25.82,North,0,0.0,0.0,17,0.00,,---,0.00,VWS V13.01,2013-04-28 13:54:00,
2013-04-28 07:59:00,71.2,24.2,25.82,North,0,0.0,0.0,17,0.00,,---,0.00,VWS V13.01,2013-04-28 13:59:00,
2013-04-28 08:04:00,71.6,23.1,25.82,North,0,0.0,0.0,16,0.00,,---,0.00,VWS V13.01,2013-04-28 14:04:00,
2013-04-28 08:09:00,72.0,23.4,25.82,North,0,0.0,0.0,16,0.00,,---,0.00,VWS V13.01,2013-04-28 14:09:00,
2013-04-28 08:14:00,72.3,23.6,25.82,North,0,0.0,0.0,16,0.00,,---,0.00,VWS V13.01,2013-04-28 14:14:00,
2013-04-28 08:19:00,72.7,23.9,25.82,North,0,0.0,0.0,16,0.00,,---,0.00,VWS V13.01,2013-04-28 14:19:00,
2013-04-28 08:24:00,73.0,24.2,25.85,North,0,0.0,0.0,16,0.00,,---,0.00,VWS V13.01,2013-04-28 14:24:00,
2013-04-28 08:29:00,73.4,24.5,25.85,North,0,0.0,0.0,16,0.00,,---,0.00,VWS V13.01,2013-04-28 14:29:00,
2013-04-28 08:34:00,73.8,24.8,25.85,North,0,0.0,0.0,16,0.00,,---,0.00,VWS V13.01,2013-04-28 14:34:00,
2013-04-28 08:39:00,73.9,25.0,25.85,North,0,0.0,0.0,16,0.00,,---,0.00,VWS V13.01,2013-04-28 14:39:00,
2013-04-28 08:44:00,73.9,25.0,25.85,North,0,0.0,0.0,16,0.00,,---,0.00,VWS V13.01,2013-04-28 14:44:00,
2013-04-28 08:49:00,73.9,25.0,25.85,North,0,0.0,0.0,16,0.00,,---,0.00,VWS V13.01,2013-04-28 14:49:00,
2013-04-28 08:54:00,74.1,25.1,25.85,North,0,0.0,0.0,16,0.00,,---,0.00,VWS V13.01,2013-04-28 14:54:00,
2013-04-28 08:59:00,74.1,25.1,25.85,North,0,0.0,0.0,16,0.00,,---,0.00,VWS V13.01,2013-04-28 14:59:00,
2013-04-28 09:04:00,74.5,25.4,25.85,North,0,0.0,0.0,16,0.00,,---,0.00,VWS V13.01,2013-04-28 15:04:00,
2013-04-28 09:09:00,74.7,25.5,25.85,North,0,0.0,0.0,16,0.00,,---,0.00,VWS V13.01,2013-04-28 15:09:00,
2013-04-28 09:14:00,75.0,25.8,25.85,North,0,0.0,0.0,16,0.00,,---,0.00,VWS V13.01,2013-04-28 15:14:00,
2013-04-28 09:19:00,75.2,24.4,25.85,North,0,0.0,0.0,15,0.00,,---,0.00,VWS V13.01,2013-04-28 15:19:00,
2013-04-28 09:24:00,75.4,24.6,25.85,North,0,0.0,0.0,15,0.00,,---,0.00,VWS V13.01,2013-04-28 15:24:00,
2013-04-28 09:29:00,75.6,24.7,25.85,North,0,0.0,0.0,15,0.00,,---,0.00,VWS V13.01,2013-04-28 15:29:00,
2013-04-28 09:34:00,75.6,24.7,25.85,North,0,0.0,0.0,15,0.00,,---,0.00,VWS V13.01,2013-04-28 15:34:00,
2013-04-28 09:39:00,75.7,24.9,25.85,North,0,0.0,0.0,15,0.00,,---,0.00,VWS V13.01,2013-04-28 15:39:00,
2013-04-28 09:44:00,76.3,25.3,25.85,North,0,0.0,0.0,15,0.00,,---,0.00,VWS V13.01,2013-04-28 15:44:00,
2013-04-28 09:49:00,76.6,25.6,25.85,North,0,0.0,0.0,15,0.00,,---,0.00,VWS V13.01,2013-04-28 15:49:00,
2013-04-28 09:54:00,77.0,25.9,25.85,North,0,0.0,0.0,15,0.00,,---,0.00,VWS V13.01,2013-04-28 15:54:00,
2013-04-28 09:59:00,77.4,26.1,25.85,North,0,0.0,0.0,15,0.00,,---,0.00,VWS V13.01,2013-04-28 15:59:00,
2013-04-28 10:04:00,77.2,26.0,25.85,North,0,0.0,0.0,15,0.00,,---,0.00,VWS V13.01,2013-04-28 16:04:00,
2013-04-28 10:09:00,77.0,25.9,25.88,North,0,0.0,0.0,15,0.00,,---,0.00,VWS V13.01,2013-04-28 16:09:00,
2013-04-28 10:14:00,76.8,25.7,25.88,North,0,0.0,0.0,15,0.00,,---,0.00,VWS V13.01,2013-04-28 16:14:00,
2013-04-28 10:19:00,76.8,25.7,25.88,North,0,0.0,0.0,15,0.00,,---,0.00,VWS V13.01,2013-04-28 16:19:00,
2013-04-28 10:24:00,77.0,25.9,25.85,North,0,0.0,0.0,15,0.00,,---,0.00,VWS V13.01,2013-04-28 16:24:00,
2013-04-28 10:29:00,77.9,26.6,25.85,North,0,0.0,0.0,15,0.00,,---,0.00,VWS V13.01,2013-04-28 16:29:00,
2013-04-28 10:34:00,78.8,27.3,25.85,North,0,0.0,0.0,15,0.00,,---,0.00,VWS V13.01,2013-04-28 16:34:00,
2013-04-28 10:39:00,78.8,27.3,25.85,North,0,0.0,0.0,15,0.00,,---,0.00,VWS V13.01,2013-04-28 16:39:00,
2013-04-28 10:44:00,79.0,27.4,25.85,North,0,0.0,0.0,15,0.00,,---,0.00,VWS V13.01,2013-04-28 16:44:00,
2013-04-28 10:49:00,79.0,27.4,25.85,North,0,0.0,0.0,15,0.00,,---,0.00,VWS V13.01,2013-04-28 16:49:00,
2013-04-28 10:54:00,79.0,27.4,25.88,North,0,0.0,0.0,15,0.00,,---,0.00,VWS V13.01,2013-04-28 16:54:00,
2013-04-28 10:59:00,79.0,27.4,25.88,North,0,0.0,0.0,15,0.00,,---,0.00,VWS V13.01,2013-04-28 16:59:00,
2013-04-28 11:04:00,79.7,28.0,25.88,North,0,0.0,0.0,15,0.00,,---,0.00,VWS V13.01,2013-04-28 17:04:00,
2013-04-28 11:09:00,80.2,28.4,25.88,North,0,0.0,0.0,15,0.00,,---,0.00,VWS V13.01,2013-04-28 17:09:00,
2013-04-28 11:14:00,81.0,27.3,25.88,North,0,0.0,0.0,14,0.00,,---,0.00,VWS V13.01,2013-04-28 17:14:00,
2013-04-28 11:19:00,81.3,27.6,25.88,North,0,0.0,0.0,14,0.00,,---,0.00,VWS V13.01,2013-04-28 17:19:00,
2013-04-28 11:24:00,81.0,27.3,25.88,North,0,0.0,0.0,14,0.00,,---,0.00,VWS V13.01,2013-04-28 17:24:00,
2013-04-28 11:29:00,80.1,28.3,25.88,North,0,0.0,0.0,15,0.00,,---,0.00,VWS V13.01,2013-04-28 17:29:00,
2013-04-28 11:34:00,79.7,28.0,25.88,North,0,0.0,0.0,15,0.00,,---,0.00,VWS V13.01,2013-04-28 17:34:00,
2013-04-28 11:39:00,79.0,27.4,25.88,North,0,0.0,0.0,15,0.00,,---,0.00,VWS V13.01,2013-04-28 17:39:00,
2013-04-28 11:44:00,79.0,27.4,25.88,North,0,0.0,0.0,15,0.00,,---,0.00,VWS V13.01,2013-04-28 17:44:00,
2013-04-28 11:49:00,79.3,27.7,25.88,North,0,0.0,0.0,15,0.00,,---,0.00,VWS V13.01,2013-04-28 17:49:00,
2013-04-28 11:54:00,79.9,28.1,25.88,North,0,0.0,0.0,15,0.00,,---,0.00,VWS V13.01,2013-04-28 17:54:00,
2013-04-28 11:59:00,80.8,27.2,25.88,North,0,0.0,0.0,14,0.00,,---,0.00,VWS V13.01,2013-04-28 17:59:00,
2013-04-28 12:04:00,81.9,28.0,25.88,North,0,0.0,0.0,14,0.00,,---,0.00,VWS V13.01,2013-04-28 18:04:00,
2013-04-28 12:09:00,81.1,27.5,25.88,North,0,0.0,0.0,14,0.00,,---,0.00,VWS V13.01,2013-04-28 18:09:00,
2013-04-28 12:14:00,80.4,28.6,25.88,North,0,0.0,0.0,15,0.00,,---,0.00,VWS V13.01,2013-04-28 18:14:00,
2013-04-28 12:19:00,80.6,27.0,25.88,North,0,0.0,0.0,14,0.00,,---,0.00,VWS V13.01,2013-04-28 18:19:00,
2013-04-28 12:24:00,79.7,28.0,25.85,North,0,0.0,0.0,15,0.00,,---,0.00,VWS V13.01,2013-04-28 18:24:00,
2013-04-28 12:29:00,79.2,27.6,25.85,North,0,0.0,0.0,15,0.00,,---,0.00,VWS V13.01,2013-04-28 18:29:00,
2013-04-28 12:34:00,78.8,27.3,25.85,North,0,0.0,0.0,15,0.00,,---,0.00,VWS V13.01,2013-04-28 18:34:00,
2013-04-28 12:39:00,78.6,27.1,25.85,North,0,0.0,0.0,15,0.00,,---,0.00,VWS V13.01,2013-04-28 18:39:00,
2013-04-28 12:44:00,78.3,26.9,25.85,North,0,0.0,0.0,15,0.00,,---,0.00,VWS V13.01,2013-04-28 18:44:00,
2013-04-28 12:49:00,77.7,26.4,25.85,North,0,0.0,0.0,15,0.00,,---,0.00,VWS V13.01,2013-04-28 18:49:00,
2013-04-28 12:54:00,77.4,26.1,25.82,North,0,0.0,0.0,15,0.00,,---,0.00,VWS V13.01,2013-04-28 18:54:00,
2013-04-28 12:59:00,77.0,25.9,25.82,North,0,0.0,0.0,15,0.00,,---,0.00,VWS V13.01,2013-04-28 18:59:00,
2013-04-28 13:04:00,76.8,25.7,25.82,North,0,0.0,0.0,15,0.00,,---,0.00,VWS V13.01,2013-04-28 19:04:00,
2013-04-28 13:09:00,76.3,25.3,25.82,North,0,0.0,0.0,15,0.00,,---,0.00,VWS V13.01,2013-04-28 19:09:00,
2013-04-28 13:14:00,76.1,25.1,25.82,North,0,0.0,0.0,15,0.00,,---,0.00,VWS V13.01,2013-04-28 19:14:00,
2013-04-28 13:19:00,76.1,25.1,25.82,North,0,0.0,0.0,15,0.00,,---,0.00,VWS V13.01,2013-04-28 19:19:00,
2013-04-28 13:24:00,76.5,25.4,25.82,North,0,0.0,0.0,15,0.00,,---,0.00,VWS V13.01,2013-04-28 19:24:00,
2013-04-28 13:29:00,77.2,26.0,25.82,North,0,0.0,0.0,15,0.00,,---,0.00,VWS V13.01,2013-04-28 19:29:00,
2013-04-28 13:34:00,78.1,26.7,25.82,North,0,0.0,0.0,15,0.00,,---,0.00,VWS V13.01,2013-04-28 19:34:00,
2013-04-28 13:39:00,78.1,26.7,25.82,North,0,0.0,0.0,15,0.00,,---,0.00,VWS V13.01,2013-04-28 19:39:00,
2013-04-28 13:44:00,77.7,26.4,25.82,North,0,0.0,0.0,15,0.00,,---,0.00,VWS V13.01,2013-04-28 19:44:00,
2013-04-28 13:49:00,77.5,26.3,25.82,North,0,0.0,0.0,15,0.00,,---,0.00,VWS V13.01,2013-04-28 19:49:00,
2013-04-28 13:54:00,77.7,26.4,25.79,North,0,0.0,0.0,15,0.00,,---,0.00,VWS V13.01,2013-04-28 19:54:00,
2013-04-28 13:59:00,77.7,26.4,25.79,North,0,0.0,0.0,15,0.00,,---,0.00,VWS V13.01,2013-04-28 19:59:00,
2013-04-28 14:04:00,79.3,27.7,25.79,North,0,0.0,0.0,15,0.00,,---,0.00,VWS V13.01,2013-04-28 20:04:00,
2013-04-28 14:09:00,80.6,27.0,25.79,North,0,0.0,0.0,14,0.00,,---,0.00,VWS V13.01,2013-04-28 20:09:00,
2013-04-28 14:15:00,80.4,31.7,25.79,North,0,0.0,0.0,17,0.00,,---,0.00,VWS V13.01,2013-04-28 20:15:00,
2013-04-28 14:20:00,79.2,27.6,25.79,North,0,0.0,0.0,15,0.00,,---,0.00,VWS V13.01,2013-04-28 20:20:00,
2013-04-28 14:25:00,77.7,30.9,25.79,North,0,0.0,0.0,18,0.00,,---,0.00,VWS V13.01,2013-04-28 20:25:00,
2013-04-28 14:30:00,76.1,29.6,25.79,North,0,0.0,0.0,18,0.00,,---,0.00,VWS V13.01,2013-04-28 20:30:00,
2013-04-28 14:35:00,75.2,28.8,25.79,North,0,0.0,0.0,18,0.00,,---,0.00,VWS V13.01,2013-04-28 20:35:00,
2013-04-28 14:40:00,74.7,28.4,25.79,North,0,0.0,0.0,18,0.00,,---,0.00,VWS V13.01,2013-04-28 20:40:00,
2013-04-28 14:45:00,74.1,27.9,25.79,North,0,0.0,0.0,18,0.00,,---,0.00,VWS V13.01,2013-04-28 20:45:00,
2013-04-28 14:50:00,73.8,27.6,25.79,North,0,0.0,0.0,18,0.00,,---,0.00,VWS V13.01,2013-04-28 20:50:00,
2013-04-28 14:55:00,73.4,27.4,25.79,North,0,0.0,0.0,18,0.00,,---,0.00,VWS V13.01,2013-04-28 20:55:00,
2013-04-28 15:01:00,72.9,28.2,25.79,North,0,0.0,0.0,19,0.00,,---,0.00,VWS V13.01,2013-04-28 21:01:00,
2013-04-28 15:06:00,72.1,27.6,25.79,North,0,0.0,0.0,19,0.00,,---,0.00,VWS V13.01,2013-04-28 21:06:00,
2013-04-28 15:31:00,69.1,29.8,25.76,North,0,0.0,0.0,23,0.08,,---,0.08,VWS V13.01,2013-04-28 21:31:00,
2013-04-28 15:37:00,69.3,29.9,25.76,North,0,0.0,0.0,23,0.08,,---,0.08,VWS V13.01,2013-04-28 21:37:00,
2013-04-28 15:42:00,69.8,30.4,25.76,North,0,0.0,0.0,23,0.08,,---,0.08,VWS V13.01,2013-04-28 21:42:00,
2013-04-28 15:47:00,70.3,30.8,25.76,North,0,0.0,0.0,23,0.08,,---,0.08,VWS V13.01,2013-04-28 21:47:00,
2013-04-28 15:52:00,70.0,30.5,25.76,North,0,0.0,0.0,23,0.08,,---,0.08,VWS V13.01,2013-04-28 21:52:00,
2013-04-28 15:57:00,69.4,30.1,25.76,North,0,0.0,0.0,23,0.08,,---,0.08,VWS V13.01,2013-04-28 21:57:00,
2013-04-28 16:02:00,69.3,29.9,25.76,North,0,0.0,0.0,23,0.08,,---,0.08,VWS V13.01,2013-04-28 22:02:00,
2013-04-28 16:07:00,69.1,28.7,25.76,North,0,0.0,0.0,22,0.08,,---,0.08,VWS V13.01,2013-04-28 22:07:00,
2013-04-28 16:12:00,68.7,28.4,25.76,North,0,0.0,0.0,22,0.04,,---,0.08,VWS V13.01,2013-04-28 22:12:00,
2013-04-28 16:17:00,68.7,28.4,25.76,North,0,0.0,0.0,22,0.04,,---,0.08,VWS V13.01,2013-04-28 22:17:00,
2013-04-28 16:22:00,68.9,29.6,25.76,North,0,0.0,0.0,23,0.00,,---,0.08,VWS V13.01,2013-04-28 22:22:00,
2013-04-28 16:27:00,68.9,29.6,25.76,North,0,0.0,0.0,23,0.00,,---,0.08,VWS V13.01,2013-04-28 22:27:00,
2013-04-28 16:33:00,68.9,29.6,25.76,North,0,0.0,0.0,23,0.00,,---,0.08,VWS V13.01,2013-04-28 22:33:00,
2013-04-28 16:38:00,68.7,29.5,25.76,North,0,0.0,0.0,23,0.00,,---,0.08,VWS V13.01,2013-04-28 22:38:00,
2013-04-28 16:43:00,68.7,29.5,25.76,North,0,0.0,0.0,23,0.00,,---,0.08,VWS V13.01,2013-04-28 22:43:00,
2013-04-28 16:48:00,68.5,29.3,25.76,North,0,0.0,0.0,23,0.00,,---,0.08,VWS V13.01,2013-04-28 22:48:00,
2013-04-28 16:53:00,68.4,29.1,25.76,North,0,0.0,0.0,23,0.00,,---,0.08,VWS V13.01,2013-04-28 22:53:00,
2013-04-28 16:58:00,68.2,29.0,25.76,North,0,0.0,0.0,23,0.00,,---,0.08,VWS V13.01,2013-04-28 22:58:00,
2013-04-28 17:04:00,68.0,28.9,25.76,North,0,0.0,0.0,23,0.00,,---,0.08,VWS V13.01,2013-04-28 23:04:00,
2013-04-28 17:09:00,68.0,28.9,25.76,North,0,0.0,0.0,23,0.00,,---,0.08,VWS V13.01,2013-04-28 23:09:00,
2013-04-28 17:14:00,67.8,28.7,25.76,North,0,0.0,0.0,23,0.00,,---,0.08,VWS V13.01,2013-04-28 23:14:00,
2013-04-28 17:19:00,67.6,28.5,25.76,North,0,0.0,0.0,23,0.00,,---,0.08,VWS V13.01,2013-04-28 23:19:00,
2013-04-28 17:24:00,67.5,28.4,25.76,North,0,0.0,0.0,23,0.00,,---,0.08,VWS V13.01,2013-04-28 23:24:00,
2013-04-28 17:29:00,67.5,29.4,25.76,North,0,0.0,0.0,24,0.00,,---,0.08,VWS V13.01,2013-04-28 23:29:00,
2013-04-28 17:34:00,67.1,29.1,25.76,North,0,0.0,0.0,24,0.00,,---,0.08,VWS V13.01,2013-04-28 23:34:00,
2013-04-28 17:39:00,66.9,29.0,25.76,North,0,0.0,0.0,24,0.00,,---,0.08,VWS V13.01,2013-04-28 23:39:00,
2013-04-28 17:44:00,66.9,29.0,25.76,North,0,0.0,0.0,24,0.00,,---,0.08,VWS V13.01,2013-04-28 23:44:00,
2013-04-28 17:50:00,66.7,28.8,25.76,North,0,0.0,0.0,24,0.00,,---,0.08,VWS V13.01,2013-04-28 23:50:00,
2013-04-28 17:55:00,66.6,28.7,25.76,North,0,0.0,0.0,24,0.00,,---,0.08,VWS V13.01,2013-04-28 23:55:00,
2013-04-28 18:00:00,66.4,28.5,25.76,North,0,0.0,0.0,24,0.00,,---,0.08,VWS V13.01,2013-04-29 00:00:00,
2013-04-28 18:05:00,66.2,28.4,25.76,North,0,0.0,0.0,24,0.00,,---,0.08,VWS V13.01,2013-04-29 00:05:00,
2013-04-28 18:10:00,66.0,29.2,25.76,North,0,0.0,0.0,25,0.00,,---,0.08,VWS V13.01,2013-04-29 00:10:00,
2013-04-28 18:15:00,66.0,29.2,25.76,North,0,0.0,0.0,25,0.00,,---,0.08,VWS V13.01,2013-04-29 00:15:00,
2013-04-28 18:20:00,65.8,29.1,25.76,North,0,0.0,0.0,25,0.00,,---,0.08,VWS V13.01,2013-04-29 00:20:00,
2013-04-28 18:25:00,65.8,29.1,25.76,North,0,0.0,0.0,25,0.00,,---,0.08,VWS V13.01,2013-04-29 00:25:00,
2013-04-28 18:30:00,66.0,29.2,25.76,North,0,0.0,0.0,25,0.00,,---,0.08,VWS V13.01,2013-04-29 00:30:00,
2013-04-28 18:35:00,66.0,29.2,25.76,North,0,0.0,0.0,25,0.00,,---,0.08,VWS V13.01,2013-04-29 00:35:00,
2013-04-28 18:40:00,66.0,29.2,25.76,North,0,0.0,0.0,25,0.00,,---,0.08,VWS V13.01,2013-04-29 00:40:00,
2013-04-28 18:46:00,66.2,28.4,25.76,North,0,0.0,0.0,24,0.00,,---,0.08,VWS V13.01,2013-04-29 00:46:00,
2013-04-28 18:51:00,66.2,28.4,25.76,North,0,0.0,0.0,24,0.00,,---,0.08,VWS V13.01,2013-04-29 00:51:00,
2013-04-28 18:56:00,66.2,28.4,25.76,North,0,0.0,0.0,24,0.00,,---,0.08,VWS V13.01,2013-04-29 00:56:00,
2013-04-28 19:01:00,66.4,28.5,25.76,North,0,0.0,0.0,24,0.00,,---,0.08,VWS V13.01,2013-04-29 01:01:00,
2013-04-28 19:06:00,66.4,28.5,25.76,North,0,0.0,0.0,24,0.00,,---,0.08,VWS V13.01,2013-04-29 01:06:00,
2013-04-28 19:11:00,66.4,28.5,25.76,North,0,0.0,0.0,24,0.00,,---,0.08,VWS V13.01,2013-04-29 01:11:00,
2013-04-28 19:16:00,66.4,27.5,25.76,North,0,0.0,0.0,23,0.00,,---,0.08,VWS V13.01,2013-04-29 01:16:00,
2013-04-28 19:22:00,66.4,27.5,25.76,North,0,0.0,0.0,23,0.00,,---,0.08,VWS V13.01,2013-04-29 01:22:00,
2013-04-28 19:27:00,66.4,27.5,25.76,North,0,0.0,0.0,23,0.00,,---,0.08,VWS V13.01,2013-04-29 01:27:00,
2013-04-28 19:32:00,66.2,27.3,25.76,North,0,0.0,0.0,23,0.00,,---,0.08,VWS V13.01,2013-04-29 01:32:00,
2013-04-28 19:37:00,66.2,27.3,25.79,North,0,0.0,0.0,23,0.00,,---,0.08,VWS V13.01,2013-04-29 01:37:00,
2013-04-28 19:42:00,66.2,27.3,25.79,North,0,0.0,0.0,23,0.00,,---,0.08,VWS V13.01,2013-04-29 01:42:00,
2013-04-28 19:47:00,66.2,27.3,25.79,North,0,0.0,0.0,23,0.00,,---,0.08,VWS V13.01,2013-04-29 01:47:00,
2013-04-28 19:52:00,66.2,27.3,25.79,North,0,0.0,0.0,23,0.00,,---,0.08,VWS V13.01,2013-04-29 01:52:00,
2013-04-28 19:57:00,66.4,27.5,25.79,North,0,0.0,0.0,23,0.00,,---,0.08,VWS V13.01,2013-04-29 01:57:00,
2013-04-28 20:02:00,66.4,27.5,25.79,North,0,0.0,0.0,23,0.00,,---,0.08,VWS V13.01,2013-04-29 02:02:00,
2013-04-28 20:07:00,66.4,27.5,25.79,North,0,0.0,0.0,23,0.00,,---,0.08,VWS V13.01,2013-04-29 02:07:00,
2013-04-28 20:13:00,66.4,27.5,25.79,North,0,0.0,0.0,23,0.00,,---,0.08,VWS V13.01,2013-04-29 02:13:00,
2013-04-28 20:18:00,66.2,27.3,25.79,North,0,0.0,0.0,23,0.00,,---,0.08,VWS V13.01,2013-04-29 02:18:00,
2013-04-28 20:23:00,66.2,27.3,25.79,North,0,0.0,0.0,23,0.00,,---,0.08,VWS V13.01,2013-04-29 02:23:00,
2013-04-28 20:28:00,66.0,27.2,25.79,North,0,0.0,0.0,23,0.00,,---,0.08,VWS V13.01,2013-04-29 02:28:00,
2013-04-28 20:33:00,66.0,27.2,25.79,North,0,0.0,0.0,23,0.00,,---,0.08,VWS V13.01,2013-04-29 02:33:00,
2013-04-28 20:38:00,66.0,27.2,25.79,North,0,0.0,0.0,23,0.00,,---,0.08,VWS V13.01,2013-04-29 02:38:00,
2013-04-28 20:43:00,66.2,27.3,25.79,North,0,0.0,0.0,23,0.00,,---,0.08,VWS V13.01,2013-04-29 02:43:00,
2013-04-28 20:48:00,66.2,27.3,25.79,North,0,0.0,0.0,23,0.00,,---,0.08,VWS V13.01,2013-04-29 02:48:00,
2013-04-28 20:53:00,66.2,27.3,25.79,North,0,0.0,0.0,23,0.00,,---,0.08,VWS V13.01,2013-04-29 02:53:00,
2013-04-28 20:58:00,66.2,26.3,25.79,North,0,0.0,0.0,22,0.00,,---,0.08,VWS V13.01,2013-04-29 02:58:00,
2013-04-28 21:04:00,66.4,26.4,25.79,North,0,0.0,0.0,22,0.00,,---,0.08,VWS V13.01,2013-04-29 03:04:00,
2013-04-28 21:09:00,66.4,26.4,25.79,North,0,0.0,0.0,22,0.00,,---,0.08,VWS V13.01,2013-04-29 03:09:00,
2013-04-28 21:14:00,66.6,26.6,25.79,North,0,0.0,0.0,22,0.00,,---,0.08,VWS V13.01,2013-04-29 03:14:00,
2013-04-28 21:19:00,66.6,24.3,25.79,North,0,0.0,0.0,20,0.00,,---,0.08,VWS V13.01,2013-04-29 03:19:00,
2013-04-28 21:24:00,66.4,24.1,25.79,North,0,0.0,0.0,20,0.00,,---,0.08,VWS V13.01,2013-04-29 03:24:00,
2013-04-28 21:29:00,66.0,23.8,25.79,North,0,0.0,0.0,20,0.00,,---,0.08,VWS V13.01,2013-04-29 03:29:00,
2013-04-28 21:34:00,66.0,23.8,25.79,North,0,0.0,0.0,20,0.00,,---,0.08,VWS V13.01,2013-04-29 03:34:00,
2013-04-28 21:39:00,65.8,23.7,25.76,North,0,0.0,0.0,20,0.00,,---,0.08,VWS V13.01,2013-04-29 03:39:00,
2013-04-28 21:45:00,65.8,23.7,25.76,North,0,0.0,0.0,20,0.00,,---,0.08,VWS V13.01,2013-04-29 03:45:00,
2013-04-28 21:50:00,65.7,23.5,25.76,North,0,0.0,0.0,20,0.00,,---,0.08,VWS V13.01,2013-04-29 03:50:00,
2013-04-28 21:55:00,65.3,26.6,25.79,North,0,0.0,0.0,23,0.00,,---,0.08,VWS V13.01,2013-04-29 03:55:00,
2013-04-28 22:00:00,64.9,22.9,25.79,North,0,0.0,0.0,20,0.00,,---,0.08,VWS V13.01,2013-04-29 04:00:00,
2013-04-28 22:01:00,64.9,22.9,25.79,North,0,0.0,0.0,20,0.00,,---,0.08,VWS V13.01,2013-04-29 04:01:00,
2013-04-28 22:02:00,64.9,22.9,25.79,North,0,0.0,0.0,20,0.00,,---,0.08,VWS V13.01,2013-04-29 04:02:00,
2013-04-28 22:04:00,65.1,23.1,25.79,North,0,0.0,0.0,20,0.00,,---,0.08,VWS V13.01,2013-04-29 04:04:00,
2013-04-28 22:09:00,65.7,23.5,25.79,North,0,0.0,0.0,20,0.00,,---,0.08,VWS V13.01,2013-04-29 04:09:00,
2013-04-28 22:14:00,66.0,23.8,25.79,North,0,0.0,0.0,20,0.00,,---,0.08,VWS V13.01,2013-04-29 04:14:00,
2013-04-28 22:19:00,66.4,24.1,25.79,North,0,0.0,0.0,20,0.00,,---,0.08,VWS V13.01,2013-04-29 04:19:00,
2013-04-28 22:25:00,66.6,24.3,25.79,North,0,0.0,0.0,20,0.00,,---,0.08,VWS V13.01,2013-04-29 04:25:00,
2013-04-28 22:30:00,66.6,24.3,25.79,North,0,0.0,0.0,20,0.00,,---,0.08,VWS V13.01,2013-04-29 04:30:00,
2013-04-28 22:35:00,66.4,24.1,25.79,North,0,0.0,0.0,20,0.00,,---,0.08,VWS V13.01,2013-04-29 04:35:00,
2013-04-28 22:40:00,66.0,23.8,25.79,North,0,0.0,0.0,20,0.00,,---,0.08,VWS V13.01,2013-04-29 04:40:00,
2013-04-28 22:45:00,65.7,23.5,25.79,North,0,0.0,0.0,20,0.00,,---,0.08,VWS V13.01,2013-04-29 04:45:00,
2013-04-28 22:50:00,65.3,23.2,25.79,North,0,0.0,0.0,20,0.00,,---,0.08,VWS V13.01,2013-04-29 04:50:00,
2013-04-28 22:55:00,65.3,23.2,25.76,North,0,0.0,0.0,20,0.00,,---,0.08,VWS V13.01,2013-04-29 04:55:00,
2013-04-28 23:00:00,65.5,23.4,25.76,North,0,0.0,0.0,20,0.00,,---,0.08,VWS V13.01,2013-04-29 05:00:00,
2013-04-28 23:05:00,65.5,23.4,25.76,North,0,0.0,0.0,20,0.00,,---,0.08,VWS V13.01,2013-04-29 05:05:00,
2013-04-28 23:10:00,65.3,23.2,25.76,North,0,0.0,0.0,20,0.00,,---,0.08,VWS V13.01,2013-04-29 05:10:00,
2013-04-28 23:15:00,65.5,23.4,25.76,North,0,0.0,0.0,20,0.00,,---,0.08,VWS V13.01,2013-04-29 05:15:00,
2013-04-28 23:20:00,65.8,23.7,25.76,North,0,0.0,0.0,20,0.00,,---,0.08,VWS V13.01,2013-04-29 05:20:00,
2013-04-28 23:25:00,66.2,24.0,25.76,North,0,0.0,0.0,20,0.00,,---,0.08,VWS V13.01,2013-04-29 05:25:00,
2013-04-28 23:30:00,66.6,20.4,25.76,North,0,0.0,0.0,17,0.00,,---,0.08,VWS V13.01,2013-04-29 05:30:00,
2013-04-28 23:35:00,66.9,20.7,25.76,North,0,0.0,0.0,17,0.00,,---,0.08,VWS V13.01,2013-04-29 05:35:00,
2013-04-28 23:40:00,66.7,20.6,25.76,North,0,0.0,0.0,17,0.00,,---,0.08,VWS V13.01,2013-04-29 05:40:00,
2013-04-28 23:45:00,66.2,24.0,25.76,North,0,0.0,0.0,20,0.00,,---,0.08,VWS V13.01,2013-04-29 05:45:00,
2013-04-28 23:50:00,65.7,23.5,25.76,North,0,0.0,0.0,20,0.00,,---,0.08,VWS V13.01,2013-04-29 05:50:00,
2013-04-28 23:55:00,65.3,23.2,25.76,North,0,0.0,0.0,20,0.00,,---,0.08,VWS V13.01,2013-04-29 05:55:00,